Location: Pilipovskiye Korichintsy
(49.1833°N, 27.4667°E)
Time: 21:58:53
(UTC+00:00)

Cosmos 2278 - Pass Details

Date: 14 July 2020
Orbit: 838 x 854 km, 71.1° (Epoch: 10 August)

Event Time Altitude Azimuth Distance (km) Brightness Sun altitude
Rises 00:16:47 0° 332° (NNW) 3,434 7.4 -14.3°
Reaches altitude 10° 00:19:15 10° 334° (NNW) 2,495 6.6 -14.1°
Maximum altitude 00:25:00 77° 60° (ENE) 881 3.9 -13.6°
Drops below altitude 10° 00:30:43 10° 147° (SSE) 2,479 5.9 -13.1°
Sets 00:33:10 0° 149° (SSE) 3,410 6.6 -12.9°
